SCP
0 0 0 0 0 0 0 -0 0 0 0 0 0 0 0 0 0 0 0 0 0 0 0 0 0 0 0 0 0 0 0 0 -0 -0 0 0 0 0 0 0 0 0 0 0
-0 0 0 0 0 0 -0 -0 0 0 0 0 0 0 0 0 0 0 0 0 0 0 0 0 0 0 0 0 0 -0 -0 0 0 0 0 0 0 0 0 0 0 0 0 0
0 0 0 0 -0 0 0 0 0 0 0 0 0 0 0 0 0 0 0 0 0 0 0 0 0 0 0 0 -0 -0 0 -0 0 0 -0 0 0 -0 0 0 0 -0 -0 0
0 0 0 0 0 0 0 0 0 0 0 0 0 0 0 0 0 0 0 0 0 0 0 0 0 0 0 0 0 -0 0 -0 -0 0 0 0 0 0 0 0 0 -0 -0 -0
0 0 0 0 0 0 0 0 0 0 0 0 0 0 0 0 0 0 0 0 0 0 0 0 0 0 0 0 0 0 0 0 0 -0 0 -0 0 0 0 0 0 -0 -0 -0
0 0 0 0 0 0 -0 0 0 0 0 0 0 0 0 0 0 0 0 0 0 0 0 0 0 0 0 0 0 0 0 0 0 0 0 -0 -0 0 -0 0 0 0 0 0
0 0 0 0 0 -0 0 0 0 0 0 0 0 0 0 0 0 0 0 0 0 0 0 0 0 0 0 -0 -0 0 -0 0 0 -0 -0 -0 -0 -0 0 0 0 0 0 0
0 0 0 0 0 0 0 0 0 0 0 0 0 0 0 0 0 0 0 0 0 0 0 0 0 0 0 0 -0 0 0 -0 -0 -0 -0 -0 0 0 0 -0 -0 -0 0 0
0 0 0 0 0 0 0 0 0 0 0 0 0 0 0 0 0 0 0 0 0 0 0 0 0 0 0 0 0 -0 0 -0 -0 -0 -0 -0 0 0 0 -0 -0 0 -0 -0
0 0 0 0 0 0 0 0 0 0 0 0 0 0 0 0 0 0 0 0 0 0 0 0 0 0 0 0 0 -0 -0 -0 -0 -0 -0 -0 0 -0 0 0 0 -0 -0 0
0 0 0 0 0 0 0 0 0 0 0 0 0 0 0 0 0 0 0 0 0 0 0 0 0 0 0 0 0 0 -0 0 0 -0 -0 -0 0 0 0 -0 0 0 0 0
0 0 0 0 0 0 0 0 0 0 0 0 0 0 0 0 0 0 0 0 0 0 0 0 0 0 0 0 0 0 0 0 0 -0 0 0 -0 0 -0 -0 -0 0 0 0
0 0 0 0 0 0 0 0 0 0 0 0 0 0 0 0 0 0 0 0 0 0 0 0 0 0 0 0 0 0 0 0 0 0 0 -0 -0 0 0 0 0 -0 -0 -0
0 0 0 0 0 0 0 0 0 0 0 0 0 0 0 0 0 0 0 0 0 0 0 0 0 0 0 0 0 0 0 0 0 0 0 0 0 -0 0 0 -0 0 0 -0
0 0 0 0 0 0 0 0 0 0 0 0 0 0 0 0 0 0 0 0 0 0 0 0 0 0 0 0 0 0 0 0 0 0 0 0 0 -0 -0 0 0 0 0 0
0 0 0 0 0 0 0 0 0 0 0 0 0 0 0 0 0 0 0 0 0 0 0 0 0 0 0 0 0 0 0 0 0 0 0 0 0 0 -0 0 -0 0 0 0
0 0 0 0 0 0 0 0 0 0 0 0 0 0 0 0 0 0 0 0 0 0 0 0 0 0 -0 0 0 0 0 0 0 0 0 0 0 0 0 0 0 0 0 0
0 0 0 0 0 0 0 0 0 0 0 0 0 0 0 0 0 0 0 0 0 0 0 0 0 -0 -0 -0 0 0 0 0 0 0 0 0 0 -0 0 -0 0 0 0 0
0 0 0 0 0 0 0 0 0 0 0 0 0 0 0 0 0 0 0 0 0 0 0 0 0 0 0 0 0 0 0 0 0 0 0 0 0 0 0 0 -0 0 0 0
0 0 0 0 0 0 0 0 0 0 0 0 0 0 0 0 0 0 0 0 0 0 0 0 0 0 0 0 0 -0 -0 0 0 0 0 0 0 0 0 0 0 -0 0 0
0 0 0 0 0 0 0 0 0 0 0 0 0 0 0 0 0 0 0 0 0 0 0 0 0 0 0 0 -0 0 0 0 0 0 0 0 -0 0 0 0 0 0 -0 0
0 0 0 0 0 0 0 0 0 0 0 0 0 0 0 0 0 0 0 0 0 0 0 0 0 0 0 0 0 0 0 0 0 0 0 -0 0 0 0 0 0 0 0 0
0 0 0 0 0 0 0 0 0 0 0 0 0 0 0 0 0 0 0 0 0 0 -0 0 0 -0 -0 0 0 -0 -0 -0 0 0 0 0 -0 0 0 0 0 0 0 -0
0 0 0 0 0 0 0 0 0 0 0 0 0 0 0 0 0 0 0 0 0 0 0 0 0 0 0 0 0 0 0 -0 -0 -0 0 0 0 0 -0 0 0 0 0 -0
0 0 0 0 0 0 0 0 0 0 0 0 0 0 0 0 0 0 0 0 0 0 0 0 0 0 0 0 0 0 -0 -0 -0 -0 -0 0 0 0 0 0 0 0 0 0
0 0 0 0 0 0 0 0 0 0 0 0 0 0 0 0 0 0 0 0 0 0 0 0 0 0 0 0 0 -0 -0 -0 -0 -0 0 0 0 0 0 0 0 0 0 0
0 0 0 0 0 0 0 0 0 0 0 0 0 0 0 0 0 0 0 0 0 0 0 0 0 0 0 -0 -0 -0 -0 -0 -0 0 -0 -0 0 0 0 0 0 0 0 -0
Wind_Speed_500mb
34 33 28 27 34 19 12 11 12 24 19 23 23 21 23 20 18 17 14 21 22 20 18 13 6 9 12 9 10 14 14 18 17 19 18 15 15 14 17 21 21 18 24 21
27 21 28 23 5 11 14 19 18 16 20 29 26 26 22 21 20 23 21 23 22 19 15 11 5 8 11 9 11 13 13 14 13 15 14 12 12 18 16 11 15 19 20 19
5 14 15 12 23 15 9 22 20 19 22 27 26 24 19 24 26 27 24 21 21 18 14 11 10 9 12 11 12 13 14 14 12 14 13 15 12 11 15 12 10 12 16 17
12 10 9 11 14 5 17 15 20 19 21 27 28 20 14 24 29 24 19 21 20 18 15 10 12 12 13 13 13 11 10 11 11 11 12 14 12 15 16 14 7 14 12 13
6 8 20 21 19 15 10 24 19 22 28 30 35 32 7 27 27 20 18 19 18 18 16 15 14 15 16 15 16 12 9 7 7 12 11 11 13 11 16 14 10 8 5 6
9 5 4 16 23 13 8 9 28 35 33 34 42 22 33 34 28 22 20 17 16 19 18 17 19 17 18 18 19 12 11 9 9 14 13 16 19 12 10 11 15 7 9 8
10 10 9 19 25 22 8 16 33 29 36 28 25 30 30 28 25 23 21 21 20 21 22 21 21 20 21 21 23 16 13 15 15 15 14 15 26 21 12 11 13 12 14 15
5 5 8 34 18 15 22 31 28 31 43 47 36 33 32 34 32 23 25 23 21 21 25 24 22 23 25 26 24 20 18 19 20 16 16 15 25 27 14 10 14 16 12 10
18 11 19 29 25 24 30 28 30 35 40 44 43 41 35 36 37 39 26 24 24 23 24 24 24 26 28 26 27 27 24 25 22 20 20 20 19 23 22 21 9 13 11 11
12 13 24 28 29 30 35 37 39 39 41 41 38 40 47 42 46 42 38 32 25 26 25 27 26 29 27 26 28 29 30 24 23 27 21 18 22 26 18 21 17 14 13 11
19 28 6 36 34 36 38 37 40 40 39 42 46 44 44 48 45 45 49 47 36 30 32 27 24 28 30 28 25 30 34 28 24 27 24 24 26 27 21 18 16 18 15 12
8 25 24 28 30 36 37 40 39 38 41 40 40 43 47 46 47 47 47 44 45 44 41 30 30 27 30 29 28 32 34 32 26 30 22 22 25 29 27 19 24 18 19 18
15 18 19 21 25 33 38 40 40 40 40 40 41 43 47 49 48 51 52 46 48 42 41 34 34 26 26 28 32 36 38 34 29 26 31 29 26 27 28 22 31 32 19 14
17 18 23 25 29 30 31 35 37 36 38 40 42 44 45 47 47 48 52 56 53 42 34 34 30 22 25 31 34 37 40 39 35 30 30 33 27 32 32 29 30 31 29 18
13 16 22 28 29 34 38 41 40 42 43 45 45 46 47 47 49 51 51 52 50 40 30 21 25 19 26 25 32 39 41 42 39 34 35 33 35 32 34 28 30 29 18 25
20 21 24 28 32 31 30 35 36 43 47 52 47 47 46 48 44 43 46 49 50 46 34 29 36 40 42 48 41 33 39 42 40 39 38 38 36 35 41 30 28 27 26 21
20 24 26 32 36 41 41 36 38 45 43 46 48 50 54 47 46 45 46 43 39 42 39 45 38 36 35 35 43 39 35 41 38 42 42 41 46 39 38 29 30 32 27 25
16 20 25 32 39 43 44 43 45 48 49 50 48 47 46 48 52 49 44 45 45 38 28 35 39 50 41 39 36 40 41 39 41 40 44 45 49 52 38 43 40 32 31 25
18 25 30 35 39 43 44 47 48 49 49 48 49 51 50 51 51 53 49 46 44 40 34 38 46 38 33 39 41 36 38 54 47 42 48 49 55 46 46 52 43 40 38 34
25 30 34 36 38 39 43 42 44 45 46 48 49 50 51 51 52 55 50 47 46 36 34 39 42 41 35 36 52 52 39 39 42 46 49 49 54 63 58 50 49 49 45 46
27 30 33 35 37 38 39 41 43 45 46 44 46 48 49 49 48 50 49 49 47 39 42 46 42 41 42 47 58 44 41 44 44 49 53 57 60 49 58 46 47 54 46 45
28 30 31 34 37 40 41 40 41 42 43 43 45 45 47 48 47 44 46 48 54 51 53 43 45 50 50 54 43 43 41 44 48 45 52 64 50 57 52 50 54 55 49 44
26 26 30 34 38 42 39 39 39 41 40 42 43 44 46 45 44 48 50 53 58 58 62 43 51 54 56 52 42 47 41 45 49 46 51 54 59 37 51 64 62 44 46 49
23 27 30 32 37 36 40 42 41 39 39 40 38 40 44 44 43 41 46 54 53 60 51 44 42 45 42 44 41 40 39 45 55 55 66 53 49 52 72 50 47 50 65 52
23 27 29 34 35 36 39 39 40 38 38 40 39 41 39 39 42 51 51 52 56 60 55 42 50 39 40 39 41 39 44 45 63 55 58 45 42 42 25 34 41 44 43 40
25 27 30 32 33 35 36 36 36 38 40 41 43 43 40 44 46 47 56 52 50 54 61 42 39 36 35 39 40 41 45 50 65 56 44 29 30 31 35 32 30 37 40 50
25 28 31 31 30 32 33 34 36 38 38 36 48 41 42 42 47 46 56 47 50 49 46 40 41 54 46 41 49 47 51 61 61 54 47 20 17 22 28 30 30 36 41 42
Wind_Direction_500mb
68 76 69 54 40 17 53 346 4 11 33 8 1 356 354 354 348 331 349 337 333 335 330 326 2 343 331 328 320 334 342 354 8 20 23 33 33 33 36 34 35 31 37 53
94 85 72 64 221 271 28 357 354 11 19 4 355 351 356 351 345 332 343 342 333 327 324 317 315 315 312 311 318 330 343 354 351 16 12 21 11 0 13 40 44 39 43 42
93 100 121 58 25 28 85 42 6 13 358 356 354 349 352 357 340 337 340 336 328 323 316 303 294 295 296 293 298 317 328 335 337 344 346 339 340 353 353 358 22 60 53 53
154 184 69 83 16 332 86 47 16 22 357 5 347 336 347 350 345 331 334 332 327 320 313 298 289 286 288 285 294 308 300 333 347 346 347 343 339 339 330 337 3 55 53 56
135 85 130 49 18 337 305 54 24 0 355 0 339 321 55 7 352 332 324 322 318 310 300 294 284 284 282 278 280 290 278 315 325 336 335 353 350 333 329 327 327 28 347 359
180 152 119 359 5 342 269 31 4 4 353 356 339 343 7 348 342 329 318 306 297 298 288 283 279 279 278 275 270 270 277 274 311 350 333 328 342 319 323 324 308 316 298 285
91 48 117 355 7 302 336 348 359 343 341 335 337 338 326 328 333 327 313 302 297 294 280 278 284 276 279 278 265 260 258 264 281 298 314 324 329 323 307 317 314 315 281 277
284 116 107 9 26 31 344 326 328 341 340 333 325 320 318 313 318 315 313 307 287 277 280 275 276 269 271 272 263 258 257 262 267 285 289 307 317 333 321 290 305 299 291 280
22 54 66 46 41 15 352 345 338 338 337 329 327 313 303 303 304 313 310 296 297 296 288 278 266 270 271 269 260 253 256 259 264 268 279 296 301 309 306 284 307 317 313 305
73 80 63 35 15 10 350 342 337 332 330 326 330 332 333 322 315 310 296 295 290 288 286 284 265 262 275 267 260 251 257 260 261 265 272 286 287 295 306 314 295 298 301 314
47 18 101 29 12 0 352 351 346 341 335 338 344 345 333 327 325 322 316 297 290 281 279 278 274 263 267 269 258 252 259 260 260 263 260 278 278 293 291 293 289 295 297 290
44 11 8 8 3 0 356 355 351 346 350 347 344 346 343 336 333 330 326 314 304 289 279 274 273 267 265 265 259 255 259 259 256 261 280 268 285 289 279 300 274 282 274 262
27 10 11 2 3 2 359 2 2 360 357 354 351 348 345 341 336 335 336 335 320 298 282 269 273 273 271 268 262 261 258 260 256 264 266 261 272 287 288 291 289 260 258 253
14 9 4 355 353 354 353 354 353 357 358 356 354 353 351 347 344 342 340 336 337 318 287 267 270 272 284 276 264 259 261 260 259 257 261 278 270 275 280 277 290 275 239 239
357 349 353 345 344 359 345 343 345 345 345 345 346 343 341 345 346 346 346 342 340 345 332 299 309 288 272 291 273 267 263 262 256 256 255 260 259 264 273 271 289 288 267 250
346 348 348 347 350 338 346 347 343 335 331 334 335 336 335 335 335 339 344 347 348 347 343 347 336 326 299 288 292 272 265 266 261 258 260 258 258 262 261 269 267 274 279 276
344 349 351 346 344 341 343 339 334 330 323 331 325 321 326 331 328 330 334 339 339 347 344 351 334 319 313 308 297 298 284 269 262 262 253 256 257 261 259 270 260 260 282 265
343 338 333 328 332 334 335 334 330 330 330 331 327 326 329 324 322 324 326 330 330 331 335 352 337 338 333 315 308 305 295 282 275 267 266 252 258 258 254 251 268 260 258 282
338 330 328 328 331 330 329 328 327 327 326 327 325 324 323 322 322 322 321 322 325 325 321 333 330 337 331 331 323 321 306 293 284 273 259 255 263 258 254 248 257 254 258 259
332 332 329 328 328 330 328 328 326 326 324 323 322 322 322 323 323 325 319 318 323 322 328 329 326 326 322 331 324 336 318 298 294 278 267 266 257 253 253 245 248 256 257 246
333 330 329 330 331 331 331 329 327 326 326 328 327 326 325 323 323 324 326 321 325 321 327 327 322 319 315 319 328 326 312 308 297 289 283 266 258 252 255 252 252 247 256 249
329 328 329 331 331 330 330 330 329 329 331 331 331 333 333 330 333 328 326 326 317 329 326 320 317 313 319 317 321 310 318 314 320 302 291 276 275 250 249 248 253 246 253 251
325 327 329 329 329 329 331 331 334 336 335 334 336 335 336 335 334 334 336 330 325 314 307 317 317 315 314 319 313 314 301 322 316 319 301 291 282 262 253 249 263 251 236 250
324 325 328 329 328 333 333 337 336 340 336 335 336 340 340 337 331 328 330 335 340 339 333 311 310 322 330 322 322 329 326 333 329 305 319 286 280 266 266 247 262 241 246 235
321 327 329 329 334 333 333 335 338 339 335 340 345 344 341 340 339 338 337 336 337 336 339 335 332 326 323 337 335 341 339 338 337 318 318 285 280 270 266 247 249 252 266 254
322 324 328 328 330 331 333 333 336 337 338 341 341 340 337 340 344 342 343 340 333 339 342 345 345 348 357 350 346 347 348 345 342 336 335 295 273 265 262 268 274 270 265 249
321 325 325 331 330 331 330 336 336 336 340 333 335 340 338 339 341 342 343 345 343 346 348 7 1 2 355 354 350 350 343 344 350 346 354 4 312 304 267 254 264 274 264 252
Wind_Speed_850mb
34 33 28 27 34 19 12 11 12 24 19 23 23 21 23 20 18 17 14 21 22 20 18 13 6 9 12 9 10 14 14 18 17 19 18 15 15 14 17 21 21 18 24 21
27 21 28 23 5 11 14 19 18 16 20 29 26 26 22 21 20 23 21 23 22 19 15 11 5 8 11 9 11 13 13 14 13 15 14 12 12 18 16 11 15 19 20 19
5 14 15 12 23 15 9 22 20 19 22 27 26 24 19 24 26 27 24 21 21 18 14 11 10 9 12 11 12 13 14 14 12 14 13 15 12 11 15 12 10 12 16 17
12 10 9 11 14 5 17 15 20 19 21 27 28 20 14 24 29 24 19 21 20 18 15 10 12 12 13 13 13 11 10 11 11 11 12 14 12 15 16 14 7 14 12 13
6 8 20 21 19 15 10 24 19 22 28 30 35 32 7 27 27 20 18 19 18 18 16 15 14 15 16 15 16 12 9 7 7 12 11 11 13 11 16 14 10 8 5 6
9 5 4 16 23 13 8 9 28 35 33 34 42 22 33 34 28 22 20 17 16 19 18 17 19 17 18 18 19 12 11 9 9 14 13 16 19 12 10 11 15 7 9 8
10 10 9 19 25 22 8 16 33 29 36 28 25 30 30 28 25 23 21 21 20 21 22 21 21 20 21 21 23 16 13 15 15 15 14 15 26 21 12 11 13 12 14 15
5 5 8 34 18 15 22 31 28 31 43 47 36 33 32 34 32 23 25 23 21 21 25 24 22 23 25 26 24 20 18 19 20 16 16 15 25 27 14 10 14 16 12 10
18 11 19 29 25 24 30 28 30 35 40 44 43 41 35 36 37 39 26 24 24 23 24 24 24 26 28 26 27 27 24 25 22 20 20 20 19 23 22 21 9 13 11 11
12 13 24 28 29 30 35 37 39 39 41 41 38 40 47 42 46 42 38 32 25 26 25 27 26 29 27 26 28 29 30 24 23 27 21 18 22 26 18 21 17 14 13 11
19 28 6 36 34 36 38 37 40 40 39 42 46 44 44 48 45 45 49 47 36 30 32 27 24 28 30 28 25 30 34 28 24 27 24 24 26 27 21 18 16 18 15 12
8 25 24 28 30 36 37 40 39 38 41 40 40 43 47 46 47 47 47 44 45 44 41 30 30 27 30 29 28 32 34 32 26 30 22 22 25 29 27 19 24 18 19 18
15 18 19 21 25 33 38 40 40 40 40 40 41 43 47 49 48 51 52 46 48 42 41 34 34 26 26 28 32 36 38 34 29 26 31 29 26 27 28 22 31 32 19 14
17 18 23 25 29 30 31 35 37 36 38 40 42 44 45 47 47 48 52 56 53 42 34 34 30 22 25 31 34 37 40 39 35 30 30 33 27 32 32 29 30 31 29 18
13 16 22 28 29 34 38 41 40 42 43 45 45 46 47 47 49 51 51 52 50 40 30 21 25 19 26 25 32 39 41 42 39 34 35 33 35 32 34 28 30 29 18 25
20 21 24 28 32 31 30 35 36 43 47 52 47 47 46 48 44 43 46 49 50 46 34 29 36 40 42 48 41 33 39 42 40 39 38 38 36 35 41 30 28 27 26 21
20 24 26 32 36 41 41 36 38 45 43 46 48 50 54 47 46 45 46 43 39 42 39 45 38 36 35 35 43 39 35 41 38 42 42 41 46 39 38 29 30 32 27 25
16 20 25 32 39 43 44 43 45 48 49 50 48 47 46 48 52 49 44 45 45 38 28 35 39 50 41 39 36 40 41 39 41 40 44 45 49 52 38 43 40 32 31 25
18 25 30 35 39 43 44 47 48 49 49 48 49 51 50 51 51 53 49 46 44 40 34 38 46 38 33 39 41 36 38 54 47 42 48 49 55 46 46 52 43 40 38 34
25 30 34 36 38 39 43 42 44 45 46 48 49 50 51 51 52 55 50 47 46 36 34 39 42 41 35 36 52 52 39 39 42 46 49 49 54 63 58 50 49 49 45 46
27 30 33 35 37 38 39 41 43 45 46 44 46 48 49 49 48 50 49 49 47 39 42 46 42 41 42 47 58 44 41 44 44 49 53 57 60 49 58 46 47 54 46 45
28 30 31 34 37 40 41 40 41 42 43 43 45 45 47 48 47 44 46 48 54 51 53 43 45 50 50 54 43 43 41 44 48 45 52 64 50 57 52 50 54 55 49 44
26 26 30 34 38 42 39 39 39 41 40 42 43 44 46 45 44 48 50 53 58 58 62 43 51 54 56 52 42 47 41 45 49 46 51 54 59 37 51 64 62 44 46 49
23 27 30 32 37 36 40 42 41 39 39 40 38 40 44 44 43 41 46 54 53 60 51 44 42 45 42 44 41 40 39 45 55 55 66 53 49 52 72 50 47 50 65 52
23 27 29 34 35 36 39 39 40 38 38 40 39 41 39 39 42 51 51 52 56 60 55 42 50 39 40 39 41 39 44 45 63 55 58 45 42 42 25 34 41 44 43 40
25 27 30 32 33 35 36 36 36 38 40 41 43 43 40 44 46 47 56 52 50 54 61 42 39 36 35 39 40 41 45 50 65 56 44 29 30 31 35 32 30 37 40 50
25 28 31 31 30 32 33 34 36 38 38 36 48 41 42 42 47 46 56 47 50 49 46 40 41 54 46 41 49 47 51 61 61 54 47 20 17 22 28 30 30 36 41 42
Wind_Direction_850mb
68 76 69 54 40 17 53 346 4 11 33 8 1 356 354 354 348 331 349 337 333 335 330 326 2 343 331 328 320 334 342 354 8 20 23 33 33 33 36 34 35 31 37 53
94 85 72 64 221 271 28 357 354 11 19 4 355 351 356 351 345 332 343 342 333 327 324 317 315 315 312 311 318 330 343 354 351 16 12 21 11 0 13 40 44 39 43 42
93 100 121 58 25 28 85 42 6 13 358 356 354 349 352 357 340 337 340 336 328 323 316 303 294 295 296 293 298 317 328 335 337 344 346 339 340 353 353 358 22 60 53 53
154 184 69 83 16 332 86 47 16 22 357 5 347 336 347 350 345 331 334 332 327 320 313 298 289 286 288 285 294 308 300 333 347 346 347 343 339 339 330 337 3 55 53 56
135 85 130 49 18 337 305 54 24 0 355 0 339 321 55 7 352 332 324 322 318 310 300 294 284 284 282 278 280 290 278 315 325 336 335 353 350 333 329 327 327 28 347 359
180 152 119 359 5 342 269 31 4 4 353 356 339 343 7 348 342 329 318 306 297 298 288 283 279 279 278 275 270 270 277 274 311 350 333 328 342 319 323 324 308 316 298 285
91 48 117 355 7 302 336 348 359 343 341 335 337 338 326 328 333 327 313 302 297 294 280 278 284 276 279 278 265 260 258 264 281 298 314 324 329 323 307 317 314 315 281 277
284 116 107 9 26 31 344 326 328 341 340 333 325 320 318 313 318 315 313 307 287 277 280 275 276 269 271 272 263 258 257 262 267 285 289 307 317 333 321 290 305 299 291 280
22 54 66 46 41 15 352 345 338 338 337 329 327 313 303 303 304 313 310 296 297 296 288 278 266 270 271 269 260 253 256 259 264 268 279 296 301 309 306 284 307 317 313 305
73 80 63 35 15 10 350 342 337 332 330 326 330 332 333 322 315 310 296 295 290 288 286 284 265 262 275 267 260 251 257 260 261 265 272 286 287 295 306 314 295 298 301 314
47 18 101 29 12 0 352 351 346 341 335 338 344 345 333 327 325 322 316 297 290 281 279 278 274 263 267 269 258 252 259 260 260 263 260 278 278 293 291 293 289 295 297 290
44 11 8 8 3 0 356 355 351 346 350 347 344 346 343 336 333 330 326 314 304 289 279 274 273 267 265 265 259 255 259 259 256 261 280 268 285 289 279 300 274 282 274 262
27 10 11 2 3 2 359 2 2 360 357 354 351 348 345 341 336 335 336 335 320 298 282 269 273 273 271 268 262 261 258 260 256 264 266 261 272 287 288 291 289 260 258 253
14 9 4 355 353 354 353 354 353 357 358 356 354 353 351 347 344 342 340 336 337 318 287 267 270 272 284 276 264 259 261 260 259 257 261 278 270 275 280 277 290 275 239 239
357 349 353 345 344 359 345 343 345 345 345 345 346 343 341 345 346 346 346 342 340 345 332 299 309 288 272 291 273 267 263 262 256 256 255 260 259 264 273 271 289 288 267 250
346 348 348 347 350 338 346 347 343 335 331 334 335 336 335 335 335 339 344 347 348 347 343 347 336 326 299 288 292 272 265 266 261 258 260 258 258 262 261 269 267 274 279 276
344 349 351 346 344 341 343 339 334 330 323 331 325 321 326 331 328 330 334 339 339 347 344 351 334 319 313 308 297 298 284 269 262 262 253 256 257 261 259 270 260 260 282 265
343 338 333 328 332 334 335 334 330 330 330 331 327 326 329 324 322 324 326 330 330 331 335 352 337 338 333 315 308 305 295 282 275 267 266 252 258 258 254 251 268 260 258 282
338 330 328 328 331 330 329 328 327 327 326 327 325 324 323 322 322 322 321 322 325 325 321 333 330 337 331 331 323 321 306 293 284 273 259 255 263 258 254 248 257 254 258 259
332 332 329 328 328 330 328 328 326 326 324 323 322 322 322 323 323 325 319 318 323 322 328 329 326 326 322 331 324 336 318 298 294 278 267 266 257 253 253 245 248 256 257 246
333 330 329 330 331 331 331 329 327 326 326 328 327 326 325 323 323 324 326 321 325 321 327 327 322 319 315 319 328 326 312 308 297 289 283 266 258 252 255 252 252 247 256 249
329 328 329 331 331 330 330 330 329 329 331 331 331 333 333 330 333 328 326 326 317 329 326 320 317 313 319 317 321 310 318 314 320 302 291 276 275 250 249 248 253 246 253 251
325 327 329 329 329 329 331 331 334 336 335 334 336 335 336 335 334 334 336 330 325 314 307 317 317 315 314 319 313 314 301 322 316 319 301 291 282 262 253 249 263 251 236 250
324 325 328 329 328 333 333 337 336 340 336 335 336 340 340 337 331 328 330 335 340 339 333 311 310 322 330 322 322 329 326 333 329 305 319 286 280 266 266 247 262 241 246 235
321 327 329 329 334 333 333 335 338 339 335 340 345 344 341 340 339 338 337 336 337 336 339 335 332 326 323 337 335 341 339 338 337 318 318 285 280 270 266 247 249 252 266 254
322 324 328 328 330 331 333 333 336 337 338 341 341 340 337 340 344 342 343 340 333 339 342 345 345 348 357 350 346 347 348 345 342 336 335 295 273 265 262 268 274 270 265 249
321 325 325 331 330 331 330 336 336 336 340 333 335 340 338 339 341 342 343 345 343 346 348 7 1 2 355 354 350 350 343 344 350 346 354 4 312 304 267 254 264 274 264 252